Location: Bush Observatory
(40.2653°N, 94.3194°W)
Time: 01:37:45
(UTC-05:00)

Iridium 13 - Visible Passes

Search period start: 03 August 2015 00:00
Search period end: 13 August 2015 00:00
Orbit: 776 x 779 km, 86.4° (Epoch: 02 August)

Date Brightness Start Highest point End Pass type
(mag) Time Alt. Az. Time Alt. Az. Time Alt. Az.
03 Aug 8.1 00:40:47 10° W 00:42:46 12° WNW 00:44:24 10° NW visible
03 Aug 6.0 22:26:38 36° ESE 22:27:48 41° E 22:32:42 10° NNE visible
04 Aug 7.4 00:07:05 19° WSW 00:08:47 22° WNW 00:12:41 10° NNW visible
04 Aug 6.8 21:53:00 20° ESE 21:54:27 23° E 21:58:32 10° NNE visible
04 Aug 6.6 23:33:26 32° WSW 23:34:58 39° W 23:39:50 10° NNW visible
05 Aug 7.4 21:19:19 10° E 21:21:11 12° ENE 21:23:23 10° NE visible
05 Aug 5.6 22:59:46 45° SSW 23:01:21 73° W 23:06:34 10° N visible
06 Aug 5.5 22:26:05 39° SSE 22:27:50 61° E 22:32:59 10° N visible
07 Aug 7.9 00:06:32 11° WSW 00:09:08 15° WNW 00:11:58 10° NW visible
07 Aug 6.3 21:52:23 24° SE 21:54:26 33° E 21:59:05 10° NNE visible
07 Aug 7.2 23:32:49 20° WSW 23:35:13 27° WNW 23:39:36 10° NNW visible
08 Aug 7.0 21:18:38 13° ESE 21:21:07 18° E 21:24:39 10° NE visible
08 Aug 6.2 22:59:05 29° SW 23:01:29 50° W 23:06:33 10° N visible
09 Aug 5.4 22:25:19 31° S 22:27:54 88° E 22:33:09 10° N visible
10 Aug 8.4 00:09:08 10° WNW 00:09:32 10° WNW 00:09:34 10° WNW visible
10 Aug 5.8 21:51:31 23° SSE 21:54:26 47° E 21:59:27 10° NNE visible
10 Aug 7.8 23:31:58 11° WSW 23:35:31 19° WNW 23:39:07 10° NNW visible
11 Aug 6.6 21:17:43 14° SE 21:21:04 26° E 21:25:22 10° NNE visible
11 Aug 6.9 22:58:09 16° SW 23:01:40 34° W 23:06:24 10° NNW visible
12 Aug 7.3 20:45:17 10° ESE 20:47:47 14° E 20:50:34 10° NE visible
12 Aug 5.9 22:24:17 19° SSW 22:28:00 64° W 22:33:12 10° N visible
